Comox, British Columbia

1:02 PM PDT on April 21, 2018 (GMT -0700)
Comox

Weather History for CYQQ - November, 2013

Change the Weather History Date:

Tuesday, November 19, 2013

  Actual Average Record
Temperature  
Mean Temperature 38 °F -  
Max Temperature 41 °F 44 °F 53 °F (2002)
Min Temperature 35 °F 34 °F 26 °F (1996)
Degree Days  
Heating Degree Days 27    
Moisture  
Dew Point 18 °F    
Average Humidity 49    
Maximum Humidity 100    
Minimum Humidity 11    
Precipitation  
Precipitation 0.00 in 0.26 in - ()
Sea Level Pressure  
Sea Level Pressure 29.86 in    
Wind  
Wind Speed 11 mph ()    
Max Wind Speed 24 mph    
Max Gust Speed 34 mph    
Visibility 18.5 miles    
Events      
Averages and records for this station are not official NWS values.
T = Trace of Precipitation, MM = Missing Value Source: Averaged Metar Reports

Daily Weather History Graph

Daily Weather History Graph

Search for Another Location

Airport or City:

Astronomy

Nov. 19, 2013 Rise Set
Actual Time 7:38 AM PST 4:31 PM PST
Civil Twilight 7:02 AM PST 5:07 PM PST
Nautical Twilight 6:23 AM PST 5:46 PM PST
Astronomical Twilight 5:44 AM PST 6:24 PM PST
Moon 6:25 PM PST (11/19) 9:24 AM PST (11/19)
Length of Visible Light 10h 04m
Length of Day
8h 52m
Waning Gibbous, 95% of the Moon is Illuminated
Nov 19
Waning Gibbous
Nov 25
Last Quarter
Dec 2
New
Dec 9
First Quarter
Dec 17
Full

Hourly Weather History & Observations

Time (PST) Temp. Windchill Dew Point Humidity Pressure Visibility Wind Dir Wind Speed Gust Speed Precip Events Conditions
12:00 AM 41.0 °F 39.0 °F 41.0 °F 100% 29.61 in 15.0 mi WNW 3.5 mph - N/A   Overcast
1:00 AM 41.0 °F 37.1 °F 39.2 °F 93% 29.62 in 15.0 mi WNW 5.8 mph - N/A   Overcast
2:00 AM 39.2 °F 33.6 °F 37.4 °F 93% 29.62 in 15.0 mi NW 8.1 mph - N/A   Overcast
3:00 AM 41.0 °F 35.8 °F 37.4 °F 87% 29.65 in 15.0 mi NW 8.1 mph - N/A   Mostly Cloudy
4:00 AM 39 °F - 36 °F 86% 29.67 in 15 mi WNW 4.6 mph - -   Scattered Clouds
4:00 AM 39.2 °F 35.9 °F 35.6 °F 87% 29.67 in 15.0 mi NW 4.6 mph - N/A   Mostly Cloudy
5:00 AM 39.2 °F 32.0 °F 33.8 °F 81% 29.69 in 15.0 mi NNW 11.5 mph - N/A   Mostly Cloudy
6:00 AM 37.4 °F 30.8 °F 32.0 °F 81% 29.72 in 15.0 mi NNW 9.2 mph - N/A   Mostly Cloudy
7:00 AM 35.6 °F 29.9 °F 32.0 °F 87% 29.76 in 20.0 mi WNW 6.9 mph - N/A   Scattered Clouds
8:00 AM 35.6 °F 28.6 °F 23.0 °F 60% 29.78 in 20.0 mi WNW 9.2 mph - N/A   Partly Cloudy
9:00 AM 39.2 °F 30.2 °F 14.0 °F 36% 29.80 in 20.0 mi NW 17.3 mph 23.0 mph N/A   Partly Cloudy
10:00 AM 40 °F - 8 °F 15% 29.84 in 19 mi NW 19.6 mph - -   Scattered Clouds
10:00 AM 41.0 °F 30.9 °F 8.6 °F 26% 29.84 in 20.0 mi NW 24.2 mph 34.5 mph N/A   Partly Cloudy
11:00 AM 41.0 °F 33.1 °F 10.4 °F 29% 29.86 in 20.0 mi NW 15.0 mph 24.2 mph N/A   Partly Cloudy
12:00 PM 41.0 °F 31.6 °F 5.0 °F 23% 29.86 in 20.0 mi NW 20.7 mph 33.4 mph N/A   Partly Cloudy
1:00 PM 41.0 °F 31.1 °F 3.2 °F 21% 29.87 in 20.0 mi NW 23.0 mph 31.1 mph N/A   Partly Cloudy
2:00 PM 41.0 °F 33.5 °F 6.8 °F 24% 29.89 in 20.0 mi NW 13.8 mph 25.3 mph N/A   Partly Cloudy
3:00 PM 41.0 °F 31.9 °F 3.2 °F 21% 29.92 in 20.0 mi NNW 19.6 mph 27.6 mph N/A   Partly Cloudy
4:00 PM 39 °F - 3 °F 11% 29.94 in 19 mi NW 18.4 mph - -   Scattered Clouds
4:00 PM 39.2 °F 29.0 °F 3.2 °F 22% 29.94 in 20.0 mi NNW 21.9 mph 28.8 mph N/A   Partly Cloudy
5:00 PM 37.4 °F 28.2 °F 10.4 °F 33% 29.96 in 20.0 mi NW 16.1 mph 24.2 mph N/A   Partly Cloudy
6:00 PM 35.6 °F 23.7 °F 10.4 °F 35% 29.99 in 20.0 mi NNW 24.2 mph 31.1 mph N/A   Clear
7:00 PM 35.6 °F 25.9 °F 12.2 °F 38% 30.02 in 20.0 mi NW 16.1 mph - N/A   Partly Cloudy
8:00 PM 35.6 °F 25.9 °F 12.2 °F 38% 30.04 in 20.0 mi NW 16.1 mph 25.3 mph N/A   Clear
9:00 PM 35.6 °F 25.9 °F 12.2 °F 38% 30.07 in 20.0 mi NW 16.1 mph 23.0 mph N/A   Clear
10:00 PM 35 °F - 13 °F 26% 30.09 in 19 mi NNW 18.4 mph - -  
10:00 PM 35.6 °F 24.8 °F 14.0 °F 41% 30.09 in 20.0 mi NNW 19.6 mph - N/A   Clear
11:00 PM 35.6 °F 25.5 °F 15.8 °F 44% 30.13 in 20.0 mi NNW 17.3 mph 23.0 mph N/A   Clear